TimeEEST,TemperatureF,Dew PointF,Humidity,Sea Level PressureIn,VisibilityMPH,Wind Direction,Wind SpeedMPH,Gust SpeedMPH,PrecipitationIn,Events,Conditions,WindDirDegrees,DateUTC
12:20 AM,60.8,51.8,72,29.95,6.2,NE,12.7,-,N/A,,Mostly Cloudy,40,2013-05-09 21:20:00
12:50 AM,60.8,51.8,72,29.95,6.2,NE,11.5,-,N/A,,Mostly Cloudy,50,2013-05-09 21:50:00
1:20 AM,60.8,51.8,72,29.95,6.2,ENE,8.1,-,N/A,,Mostly Cloudy,60,2013-05-09 22:20:00
1:50 AM,60.8,53.6,77,29.92,6.2,NE,6.9,-,N/A,,Mostly Cloudy,40,2013-05-09 22:50:00
2:20 AM,60.8,53.6,77,29.92,6.2,NNE,6.9,-,N/A,,Mostly Cloudy,30,2013-05-09 23:20:00
2:50 AM,60.8,53.6,77,29.92,6.2,NNE,9.2,-,N/A,,Mostly Cloudy,20,2013-05-09 23:50:00
3:00 AM,61,54,71,29.93,6,NNE,9.2,,,,Mostly Cloudy,20,2013-05-10 00:00:00
3:20 AM,60.8,53.6,77,29.92,6.2,NNE,11.5,-,N/A,,Mostly Cloudy,20,2013-05-10 00:20:00
3:50 AM,60.8,53.6,77,29.92,6.2,NNE,10.4,-,N/A,,Mostly Cloudy,20,2013-05-10 00:50:00
4:20 AM,60.8,53.6,77,29.89,6.2,NNE,8.1,-,N/A,,Mostly Cloudy,30,2013-05-10 01:20:00
4:50 AM,60.8,51.8,72,29.89,6.2,NNE,8.1,-,N/A,,Mostly Cloudy,20,2013-05-10 01:50:00
5:20 AM,60.8,53.6,77,29.89,6.2,NNE,6.9,-,N/A,,Mostly Cloudy,20,2013-05-10 02:20:00
5:50 AM,60.8,53.6,77,29.89,6.2,North,6.9,-,N/A,,Mostly Cloudy,10,2013-05-10 02:50:00
6:20 AM,60.8,53.6,77,29.89,6.2,NNE,5.8,-,N/A,,Mostly Cloudy,20,2013-05-10 03:20:00
6:50 AM,60.8,53.6,77,29.89,6.2,NNE,9.2,-,N/A,,Mostly Cloudy,30,2013-05-10 03:50:00
7:20 AM,62.6,53.6,72,29.89,6.2,Variable,5.8,-,N/A,,Mostly Cloudy,0,2013-05-10 04:20:00
7:50 AM,60.8,53.6,77,29.89,6.2,NNE,5.8,-,N/A,,Mostly Cloudy,30,2013-05-10 04:50:00
8:20 AM,62.6,53.6,72,29.92,6.2,NE,5.8,-,N/A,,Mostly Cloudy,50,2013-05-10 05:20:00
8:50 AM,62.6,51.8,68,29.92,6.2,Variable,5.8,-,N/A,,Mostly Cloudy,0,2013-05-10 05:50:00
9:00 AM,63,53,60,29.92,6,NE,5.8,,,,Mostly Cloudy,40,2013-05-10 06:00:00
9:20 AM,62.6,51.8,68,29.92,6.2,NNE,6.9,-,N/A,,Mostly Cloudy,30,2013-05-10 06:20:00
9:50 AM,62.6,53.6,72,29.92,6.2,North,8.1,-,N/A,,Mostly Cloudy,360,2013-05-10 06:50:00
10:20 AM,62.6,51.8,68,29.92,6.2,NNE,9.2,-,N/A,,Mostly Cloudy,30,2013-05-10 07:20:00
10:50 AM,60.8,51.8,72,29.92,6.2,North,10.4,-,N/A,,Mostly Cloudy,10,2013-05-10 07:50:00
11:20 AM,60.8,51.8,72,29.92,6.2,North,9.2,-,N/A,,Mostly Cloudy,10,2013-05-10 08:20:00
11:50 AM,60.8,53.6,77,29.95,6.2,NE,6.9,-,N/A,,Mostly Cloudy,40,2013-05-10 08:50:00
12:20 PM,62.6,53.6,72,29.95,6.2,NNE,5.8,-,N/A,,Mostly Cloudy,30,2013-05-10 09:20:00
12:50 PM,62.6,53.6,72,29.92,6.2,Variable,5.8,-,N/A,,Mostly Cloudy,0,2013-05-10 09:50:00
1:20 PM,62.6,53.6,72,29.92,6.2,NE,5.8,-,N/A,,Mostly Cloudy,50,2013-05-10 10:20:00
1:50 PM,62.6,53.6,72,29.92,6.2,SE,4.6,-,N/A,,Mostly Cloudy,140,2013-05-10 10:50:00
2:20 PM,64.4,55.4,73,29.92,6.2,Variable,3.5,-,N/A,,Mostly Cloudy,0,2013-05-10 11:20:00
2:50 PM,64.4,55.4,73,29.92,6.2,Variable,1.2,-,N/A,,Mostly Cloudy,0,2013-05-10 11:50:00
3:00 PM,65,54,60,29.92,6,SW,1.2,,,,Mostly Cloudy,220,2013-05-10 12:00:00
3:20 PM,62.6,55.4,77,29.92,6.2,South,5.8,-,N/A,,Mostly Cloudy,190,2013-05-10 12:20:00
3:50 PM,62.6,53.6,72,29.92,6.2,SSW,5.8,-,N/A,,Mostly Cloudy,200,2013-05-10 12:50:00
4:20 PM,64.4,55.4,73,29.92,6.2,SSW,5.8,-,N/A,,Mostly Cloudy,200,2013-05-10 13:20:00
4:50 PM,64.4,53.6,68,29.89,6.2,South,5.8,-,N/A,,Scattered Clouds,190,2013-05-10 13:50:00
5:20 PM,64.4,53.6,68,29.89,6.2,SSW,5.8,-,N/A,,Scattered Clouds,200,2013-05-10 14:20:00
5:50 PM,64.4,53.6,68,29.89,6.2,SSW,4.6,-,N/A,,Scattered Clouds,210,2013-05-10 14:50:00
6:20 PM,62.6,53.6,72,29.89,6.2,SW,4.6,-,N/A,,Scattered Clouds,220,2013-05-10 15:20:00
6:50 PM,62.6,53.6,72,29.89,6.2,West,3.5,-,N/A,,Scattered Clouds,260,2013-05-10 15:50:00
7:20 PM,62.6,53.6,72,29.89,6.2,West,3.5,-,N/A,,Mostly Cloudy,270,2013-05-10 16:20:00
7:50 PM,62.6,53.6,72,29.89,6.2,West,4.6,-,N/A,,Mostly Cloudy,280,2013-05-10 16:50:00
8:20 PM,62.6,53.6,72,29.89,6.2,NW,6.9,-,N/A,,Mostly Cloudy,320,2013-05-10 17:20:00
8:50 PM,59.0,53.6,82,29.89,6.2,North,11.5,-,N/A,,Scattered Clouds,350,2013-05-10 17:50:00
9:00 PM,60,53,70,29.90,6,North,11.5,,,,Scattered Clouds,350,2013-05-10 18:00:00
9:20 PM,57.2,51.8,82,29.89,6.2,NNW,13.8,-,N/A,,Partly Cloudy,340,2013-05-10 18:20:00
9:50 PM,57.2,53.6,88,29.89,6.2,NNW,12.7,-,N/A,,Partly Cloudy,340,2013-05-10 18:50:00
10:20 PM,57.2,53.6,88,29.89,6.2,North,10.4,-,N/A,,Partly Cloudy,350,2013-05-10 19:20:00
10:50 PM,57.2,53.6,88,29.89,6.2,North,10.4,-,N/A,,Partly Cloudy,350,2013-05-10 19:50:00
11:20 PM,57.2,53.6,88,29.89,6.2,NNE,6.9,-,N/A,,Partly Cloudy,20,2013-05-10 20:20:00
11:50 PM,57.2,53.6,88,29.89,6.2,NNE,5.8,-,N/A,,Partly Cloudy,30,2013-05-10 20:50:00